Wind_Speed
16 15 15 14 11 7 7 10 12 15 17 18 19 18 15 13 11 11 11 10 9 9 8 7 7 6 5 5 6 6 7 9 10 10 10 11 11 11 12 13 14 15 16 17 18 19 20 20 20 19 19 18 18 17 17 17 16 15 14 13 12 12 11 11 10 10 9 9 9 9 9 10 10 11 11 12 11 11 12 13 13 13 12 11 11
16 16 16 16 13 9 7 9 11 14 16 18 19 19 18 16 14 13 13 12 11 11 10 9 8 8 7 6 6 6 7 8 10 11 11 11 12 12 13 13 14 15 16 17 18 18 19 20 20 20 19 19 18 18 18 17 16 15 14 14 13 12 12 11 10 10 10 9 9 9 10 10 10 11 11 12 12 12 12 12 12 11 10 10 11
19 19 19 19 16 12 10 10 12 14 16 18 19 20 21 20 18 16 16 14 13 13 12 11 11 10 9 8 7 7 7 8 9 10 11 12 12 12 13 14 14 15 16 16 17 18 18 19 19 19 19 19 18 18 17 17 16 15 15 14 13 13 12 12 11 11 11 11 11 10 11 11 12 12 13 13 13 13 13 13 12 11 9 9 11
22 21 22 23 21 18 15 13 14 15 17 18 20 22 23 23 22 21 19 18 16 15 14 13 12 12 11 10 9 9 8 8 9 10 11 12 12 12 13 13 14 14 15 15 16 17 17 18 18 19 19 19 18 18 17 16 16 15 15 14 14 13 13 13 13 13 13 13 13 13 13 13 14 14 14 15 15 15 16 16 15 14 12 12 12
25 23 22 25 26 23 18 15 14 15 16 18 20 22 24 25 24 23 22 21 20 18 15 14 13 13 13 12 11 10 10 9 9 9 10 11 11 11 11 12 13 13 13 14 14 15 15 16 16 17 17 17 17 17 16 16 15 15 15 14 14 15 15 15 16 16 16 16 16 16 16 16 16 16 17 17 17 18 18 18 18 17 17 15 15
29 26 25 25 27 26 22 17 15 16 17 19 21 23 24 25 26 25 24 23 23 21 19 16 15 14 13 13 12 12 11 10 9 9 10 10 10 10 10 10 11 12 12 12 13 13 13 14 14 15 15 16 16 16 15 15 14 14 14 15 15 16 16 17 18 19 19 19 20 20 20 19 19 20 21 21 20 20 20 20 20 20 20 18 17
31 29 30 30 29 27 25 22 19 18 19 21 24 25 24 24 25 26 26 25 25 24 23 21 19 17 15 14 13 13 12 11 11 10 10 10 10 10 9 9 10 10 11 11 11 11 11 12 12 13 13 14 14 14 14 13 13 13 14 15 16 17 18 19 20 21 21 22 22 22 22 23 22 22 23 23 23 21 21 21 22 22 22 20 18
32 32 34 35 32 29 29 30 27 24 23 23 25 27 26 24 24 26 27 27 27 26 25 24 23 21 18 16 15 14 13 13 13 13 12 12 11 10 9 9 9 9 9 9 9 10 10 10 11 11 11 12 12 13 12 12 12 12 13 14 16 17 18 19 20 21 22 23 23 23 23 24 24 23 23 23 23 22 22 22 22 23 23 22 20
37 37 38 37 35 33 32 33 31 29 27 26 27 28 27 27 26 27 27 29 29 28 27 27 26 24 21 19 17 16 15 14 15 15 14 14 13 12 11 9 9 8 8 8 8 8 8 8 9 9 10 10 11 11 11 11 11 11 12 13 14 16 17 18 20 21 22 22 23 23 23 23 22 22 22 21 21 22 22 21 22 22 22 21 20
42 42 42 40 38 36 35 34 33 33 31 28 28 29 29 29 29 28 28 29 30 30 29 28 28 27 25 23 20 18 17 16 17 17 16 16 15 14 13 11 10 9 8 8 7 7 7 7 8 8 8 9 9 9 10 10 10 10 11 12 13 14 15 16 18 19 20 21 21 21 21 21 20 20 19 19 19 20 20 20 20 20 20 19 19
46 45 44 43 42 39 38 37 35 35 33 31 31 30 30 31 31 31 30 30 31 32 31 28 28 28 27 26 23 21 20 19 19 18 18 17 17 17 16 14 13 12 10 9 8 7 6 6 6 6 7 7 7 8 8 8 8 8 9 10 11 12 13 14 15 16 17 18 18 18 18 18 17 17 17 16 16 17 17 17 17 17 17 17 17
49 47 45 45 44 42 41 40 38 37 36 35 35 34 33 33 34 33 32 31 31 32 32 29 28 28 28 27 26 25 23 22 21 20 20 19 19 18 17 16 14 13 12 11 9 8 7 6 5 5 5 5 6 6 6 6 5 5 6 7 8 9 10 11 12 13 14 15 15 15 15 15 14 13 13 13 13 14 14 14 14 14 14 15 15
51 50 46 44 44 44 43 41 40 39 38 38 38 37 36 36 35 34 33 32 31 31 32 32 31 29 28 28 27 26 25 25 23 22 21 21 20 19 18 17 15 13 11 10 9 8 7 6 6 5 5 5 5 5 4 4 4 4 4 4 5 6 7 8 9 10 11 12 12 12 12 12 12 11 10 10 10 10 11 11 11 12 12 12 13
53 53 49 46 46 46 44 43 42 41 40 40 41 40 38 37 37 36 34 33 32 31 32 34 34 33 31 29 28 26 25 25 25 24 23 22 22 21 20 18 16 14 12 11 9 8 8 7 7 7 6 5 5 5 4 3 2 3 3 4 4 4 5 5 6 7 8 9 9 9 9 9 9 8 7 6 6 6 7 8 8 9 9 10 11
56 55 54 50 49 48 47 46 44 42 41 42 43 42 41 39 38 37 36 35 34 34 34 35 36 37 35 33 30 27 24 23 23 22 22 23 23 23 21 20 19 17 14 13 11 10 10 9 8 9 9 8 7 7 6 5 4 3 4 5 5 5 4 4 4 4 5 6 7 8 7 6 6 6 5 5 4 2 3 4 5 6 7 7 8
60 58 57 54 51 49 49 49 47 44 42 42 44 45 45 43 40 39 38 38 37 37 37 37 37 38 38 36 34 31 27 24 22 20 19 21 23 24 23 22 21 19 17 15 13 12 11 10 10 10 11 10 10 10 9 8 7 7 6 6 7 8 8 6 5 4 4 4 5 6 7 7 5 4 4 4 4 3 2 1 3 5 5 6 6
64 62 60 58 54 52 52 51 49 46 44 43 44 46 47 46 43 41 40 40 40 40 40 40 39 39 39 38 37 34 31 27 24 22 20 20 21 23 25 25 24 22 19 16 14 13 12 11 11 12 12 12 12 12 12 11 10 10 10 9 10 10 11 10 9 7 7 7 8 8 9 9 8 6 4 4 5 5 5 5 4 4 4 5 6
66 65 63 60 57 56 55 54 52 50 48 46 45 45 46 46 45 43 42 42 41 39 39 39 40 40 41 41 39 36 32 29 27 26 24 23 22 24 25 26 26 24 20 17 15 15 14 12 12 12 13 13 13 14 14 13 12 12 13 13 13 13 13 13 12 11 11 11 12 13 13 11 10 10 8 7 6 6 6 7 7 8 8 7 7
69 68 65 62 60 60 61 59 56 53 52 52 50 48 47 46 45 46 45 43 41 39 38 38 39 40 41 41 40 38 35 32 30 30 30 28 26 25 25 27 27 26 23 20 18 17 15 13 12 13 14 14 15 15 16 15 13 13 14 15 15 15 16 15 13 13 13 13 13 13 13 12 11 11 11 10 9 8 8 7 8 9 10 10 11
71 71 69 64 62 63 65 64 62 57 54 55 56 53 51 49 47 47 48 47 44 42 41 41 41 40 40 40 41 40 37 34 33 33 34 32 29 27 26 28 29 28 27 24 20 18 17 16 14 14 14 15 16 16 17 18 17 15 14 15 16 18 19 16 13 13 13 13 12 12 12 12 11 10 11 12 11 11 11 10 10 10 11 11 12
73 72 71 68 66 67 67 67 67 63 57 55 56 56 54 53 50 49 50 50 49 47 46 46 46 44 42 40 41 41 40 37 34 34 34 34 32 30 29 29 29 30 30 28 24 22 21 20 19 17 15 16 17 18 19 20 20 18 15 12 13 17 20 18 14 13 13 13 13 12 11 11 10 9 9 10 11 11 12 12 13 13 12 12 12
75 74 74 72 71 71 70 69 69 67 62 58 57 57 56 55 54 52 52 54 53 52 51 51 51 50 46 43 42 43 43 40 36 35 35 36 35 33 31 30 30 31 32 32 30 27 25 24 23 21 19 18 18 20 21 21 22 20 16 12 12 16 20 19 16 14 13 14 13 12 10 11 11 9 8 8 9 10 11 11 12 13 13 13 13
78 77 77 76 76 76 75 73 71 69 65 61 59 59 58 57 56 54 55 56 57 56 54 54 54 53 50 47 45 45 44 42 39 37 37 38 38 36 34 33 33 33 34 34 32 31 30 28 26 25 23 21 20 21 22 22 22 20 18 15 13 14 17 19 18 16 15 15 14 12 11 11 11 11 10 9 9 9 9 10 10 10 10 10 10
80 80 80 80 80 80 80 78 75 73 70 65 62 61 61 60 59 58 57 58 60 60 58 57 55 54 52 50 48 46 45 44 42 40 39 39 40 39 38 37 36 35 36 35 34 34 33 32 31 29 26 23 22 23 24 24 23 22 21 19 16 15 16 19 19 18 18 18 16 14 12 11 12 13 12 11 11 10 10 10 9 9 8 8 7
82 83 83 84 83 83 83 82 80 78 75 71 67 65 65 65 64 63 61 60 61 62 61 60 59 57 55 53 50 48 47 45 44 43 43 42 42 42 41 41 40 38 38 38 38 36 36 35 35 33 30 28 26 26 26 27 28 27 25 23 19 17 17 19 20 21 21 20 17 15 14 13 15 16 16 14 14 14 13 12 12 11 10 9 8
85 86 87 87 88 87 86 85 83 82 80 76 72 70 70 70 70 69 67 64 62 62 62 62 62 61 59 57 55 53 51 49 46 45 46 46 46 45 44 43 42 42 42 42 42 40 39 39 39 38 36 34 32 31 31 31 30 30 30 28 25 21 19 19 21 23 24 23 20 18 17 17 19 20 20 19 19 17 15 15 16 15 14 14 14
89 89 89 90 91 91 90 89 87 85 84 81 78 75 74 74 74 74 74 71 67 65 64 64 64 64 63 62 60 58 56 53 50 48 48 48 49 48 46 44 44 45 45 45 44 43 42 42 42 41 40 39 38 38 36 34 32 31 32 32 31 28 23 21 23 25 26 26 24 23 22 21 23 24 24 23 22 19 17 18 19 18 16 18 19
93 92 92 92 93 94 94 93 92 90 88 86 84 81 79 79 78 77 78 78 76 73 70 68 67 67 66 66 66 64 61 59 56 53 50 50 50 50 49 48 47 47 48 48 48 47 46 45 45 44 43 42 42 42 41 38 36 34 35 36 36 33 29 26 26 27 29 29 28 27 26 25 26 27 26 25 25 22 20 21 23 21 19 20 22
97 96 95 95 95 96 97 97 96 95 94 91 89 86 84 84 83 82 82 81 81 80 77 75 74 72 71 70 69 68 66 64 63 60 57 54 52 52 52 52 51 50 50 51 52 52 51 49 48 47 46 44 44 45 45 43 41 40 40 40 40 38 34 29 28 29 30 31 31 31 29 28 29 29 28 27 26 24 22 24 25 24 21 21 22
101 99 98 98 98 98 98 99 99 99 97 96 94 91 88 87 87 88 87 86 85 85 84 83 81 79 77 75 74 72 71 70 68 67 65 63 60 57 56 55 54 54 54 54 55 55 55 53 52 51 50 48 47 47 47 46 45 44 44 44 43 40 35 31 32 34 34 33 34 34 32 31 31 31 30 29 27 25 24 25 27 26 24 23 22
104 103 102 101 100 100 101 101 100 100 99 99 97 95 93 91 90 91 92 92 91 90 89 88 87 85 84 82 81 79 78 76 74 72 72 71 69 66 63 60 58 57 57 57 57 57 57 56 55 54 53 53 52 50 49 48 47 46 46 46 45 41 36 35 40 43 41 39 37 37 36 34 34 34 32 30 29 28 27 28 29 29 27 26 25
108 107 105 104 103 102 102 103 103 102 101 101 100 98 97 95 93 93 94 95 95 94 93 92 91 90 88 87 86 84 83 81 79 77 77 76 75 73 71 67 63 60 60 60 60 59 59 59 58 57 56 56 55 53 51 49 49 48 47 48 47 43 40 42 46 47 45 43 41 40 38 38 37 36 35 34 34 33 32 32 32 32 31 31 30
111 110 109 108 106 105 104 104 104 104 104 104 103 101 100 99 97 96 96 97 97 97 97 96 95 93 90 88 87 87 86 84 82 81 80 80 79 78 77 74 70 66 65 64 64 62 61 61 61 60 59 58 58 56 54 52 51 50 50 50 49 46 45 46 49 49 48 45 44 43 43 42 41 40 40 39 39 38 37 37 36 36 36 36 35
114 113 112 111 110 109 107 106 106 106 106 106 106 105 104 103 102 101 100 99 98 98 98 98 97 96 93 91 89 88 88 87 86 84 84 83 82 81 81 80 78 75 73 71 69 67 65 64 64 63 62 61 60 58 56 54 53 52 53 53 52 51 49 49 50 52 51 48 46 47 47 46 46 46 44 44 43 43 43 42 41 40 41 41 41
117 116 116 115 113 112 111 110 109 109 108 108 108 108 107 107 106 105 104 102 101 100 100 100 99 98 97 95 93 91 90 89 89 88 87 87 86 84 83 83 82 80 79 78 75 72 70 68 67 67 66 65 64 62 60 57 55 54 55 56 56 55 54 53 53 54 54 51 50 51 51 51 51 50 48 48 48 48 49 49 48 47 46 46 46
120 119 119 118 117 116 115 114 113 112 111 110 110 109 109 109 108 108 107 106 105 104 103 102 102 101 100 99 97 95 93 92 91 91 91 90 89 88 86 84 84 82 81 81 81 79 76 74 72 71 70 69 69 67 65 62 59 56 56 58 59 59 57 57 57 57 56 55 56 55 54 54 52 51 50 51 51 52 53 53 53 53 52 51 51
122 121 121 121 120 120 119 118 117 116 115 113 112 111 111 111 110 110 110 109 108 107 107 106 105 103 102 102 101 100 98 96 94 93 93 92 92 91 89 88 87 86 84 83 84 84 82 80 77 76 75 74 73 72 71 68 65 61 59 59 61 62 61 60 60 60 59 59 59 59 57 56 54 52 51 53 54 54 54 55 55 55 55 54 53
124 123 123 123 123 123 122 122 121 120 119 117 116 115 114 113 113 112 112 111 110 110 109 109 108 107 105 105 104 104 102 100 98 97 95 95 94 94 93 92 92 91 89 86 85 86 86 85 83 80 79 78 77 77 76 74 72 69 65 63 63 65 66 64 63 63 63 62 62 62 60 59 57 55 55 56 57 57 57 57 58 58 58 57 57
125 125 125 125 125 125 125 124 124 123 122 121 120 119 118 117 116 115 114 113 112 112 111 111 110 109 109 108 107 106 105 103 102 100 99 97 96 96 97 97 96 95 93 91 88 88 88 88 87 85 83 82 81 81 81 80 77 75 72 69 68 69 69 69 67 66 66 65 66 66 64 63 61 59 59 59 60 61 61 61 62 62 62 62 62
126 126 127 127 127 127 127 127 126 126 125 124 124 123 122 121 120 119 118 116 115 114 113 113 112 111 111 110 110 109 107 106 105 103 102 100 99 99 100 100 100 99 97 95 93 91 90 89 89 89 89 87 86 85 85 84 83 81 79 77 75 73 72 72 72 71 69 68 69 69 68 66 66 65 64 64 64 64 65 65 65 65 65 65 64
127 127 128 128 128 128 128 128 128 128 127 127 126 126 125 124 123 123 121 120 119 118 117 115 114 114 113 112 111 111 109 108 106 105 104 103 103 102 102 103 103 102 101 99 97 96 94 92 91 91 92 92 91 90 88 88 87 86 84 83 81 79 77 75 76 76 74 72 72 71 70 68 68 69 70 69 68 68 68 69 69 69 68 68 67
128 128 129 129 129 129 129 129 129 129 129 129 129 129 128 127 127 126 125 124 123 122 121 119 118 117 116 115 114 113 111 110 108 107 106 106 105 105 105 105 105 105 104 103 102 100 98 96 95 94 94 95 95 94 93 92 91 91 89 87 86 84 82 80 79 79 79 78 76 75 73 70 68 68 70 72 72 72 71 71 72 72 71 70 70
127 128 129 129 129 130 129 129 130 130 131 131 131 131 130 130 130 129 128 128 127 126 124 123 122 121 120 118 117 116 114 112 111 109 108 107 107 107 107 107 107 107 107 107 106 104 102 100 99 98 97 97 97 97 97 96 95 94 93 92 90 88 87 85 84 83 82 82 81 80 78 76 73 71 70 72 74 74 74 74 74 74 74 73 73
125 126 128 129 130 130 130 130 130 130 131 131 132 132 132 132 131 131 131 130 130 129 128 127 126 125 123 122 121 119 118 116 114 112 111 110 109 109 109 109 110 110 110 109 108 107 106 104 103 102 101 100 99 99 100 100 99 98 97 96 94 93 91 89 88 87 86 85 85 84 83 82 80 79 77 76 76 76 76 76 76 76 75 75 76
122 124 125 127 128 129 130 130 130 130 131 131 131 132 132 132 132 132 132 132 131 131 130 129 129 128 127 126 125 123 121 119 117 115 114 113 112 112 111 111 111 112 112 111 111 110 109 108 107 106 105 104 103 102 102 102 102 102 102 101 99 98 96 94 92 91 90 90 89 88 87 86 86 85 84 83 82 81 80 80 80 79 78 78 78
120 121 123 124 126 127 128 129 130 130 131 131 131 131 132 132 132 133 133 132 132 132 132 131 131 130 130 129 127 126 124 122 121 119 118 116 115 115 114 114 114 113 113 113 113 112 111 110 110 109 109 109 107 106 105 104 104 104 105 104 104 103 102 100 97 96 95 94 93 93 92 90 90 89 89 89 89 88 86 85 85 85 84 84 83
118 119 120 122 123 124 126 127 128 129 129 130 131 131 131 132 132 132 132 132 133 133 132 132 132 132 131 130 129 128 126 125 124 122 121 120 119 118 118 117 117 116 115 115 115 115 114 113 112 111 111 111 111 110 109 108 107 107 106 106 106 105 105 105 103 101 100 99 98 97 97 96 95 94 93 93 92 92 92 91 91 90 90 90 90
114 116 118 119 121 122 123 124 125 126 127 128 128 129 130 130 131 131 131 132 132 133 133 132 132 132 131 130 130 129 128 127 126 125 124 123 122 122 121 121 120 119 119 118 117 117 116 115 114 113 113 113 114 114 113 112 111 110 109 108 108 107 107 107 107 107 105 104 103 102 101 100 100 99 98 97 96 95 95 95 95 95 95 94 94
109 112 114 116 118 119 121 122 123 124 124 125 126 127 127 128 128 129 130 130 131 131 132 132 132 132 131 130 130 129 129 129 128 127 126 126 125 125 125 124 123 122 122 121 121 120 119 118 117 116 115 114 115 116 116 116 115 113 112 111 110 110 110 110 109 109 109 108 107 106 105 105 104 104 103 102 101 100 99 98 98 98 98 98 98
104 107 109 111 113 116 117 119 120 121 122 123 123 124 124 125 126 126 127 128 128 129 130 130 130 131 130 130 130 129 129 129 129 129 128 128 128 128 128 127 126 126 125 125 124 124 122 121 120 119 118 118 117 117 117 117 117 116 115 114 113 113 112 112 112 112 111 111 110 110 109 109 109 108 108 107 106 105 104 103 103 102 102 101 101
99 101 103 105 108 110 112 114 116 118 119 120 121 121 122 122 123 123 123 124 125 126 127 127 128 128 128 129 129 129 129 129 129 130 130 130 130 130 130 129 129 129 128 128 128 127 126 125 124 123 122 121 121 120 119 118 118 118 118 117 116 116 115 115 114 114 114 114 113 112 112 112 112 112 112 111 111 110 109 108 108 107 106 106 105
Wind_Direction
258 253 252 254 250 236 235 247 255 256 255 256 259 261 258 255 252 248 246 248 248 249 252 257 265 276 293 308 320 333 341 345 348 353 1 16 25 27 27 27 27 28 29 30 32 35 38 42 43 42 41 40 39 40 42 44 44 45 45 43 43 42 38 36 34 31 26 20 15 12 11 9 7 4 360 359 359 358 0 1 1 359 353 350 351
257 255 251 248 245 238 233 237 249 255 256 255 257 259 258 256 254 249 246 247 245 244 247 249 254 263 275 288 299 311 322 330 337 342 350 5 19 24 26 28 29 28 28 29 31 33 36 39 42 42 41 40 41 42 42 43 45 45 45 45 46 47 46 44 42 39 36 33 28 27 28 29 29 28 26 24 23 20 16 16 18 16 4 355 357
259 260 253 247 245 243 234 226 233 242 247 249 251 253 256 255 253 250 246 245 242 240 242 243 246 252 260 269 278 288 300 313 323 331 340 355 11 19 23 26 29 28 28 28 30 31 33 36 39 41 41 41 43 44 44 45 46 46 47 48 48 49 49 49 48 48 48 47 46 47 48 50 52 52 51 49 48 45 41 40 39 36 26 14 12
264 264 255 246 243 244 240 231 229 232 236 243 245 246 250 252 251 252 251 249 246 242 239 240 243 248 252 257 265 272 282 294 309 321 332 344 0 12 18 22 26 27 28 29 30 31 32 34 37 39 40 41 42 44 46 48 49 49 49 50 52 52 53 54 55 57 58 59 60 61 63 65 67 67 66 65 64 62 58 56 54 51 46 40 35
263 262 256 248 244 245 244 243 247 250 249 253 253 249 246 247 249 251 254 257 258 256 250 244 244 247 252 256 261 266 275 284 296 310 322 334 348 2 11 17 21 23 25 28 31 32 32 32 36 39 41 42 42 43 47 50 51 52 52 54 57 58 59 62 64 66 67 68 69 70 72 74 74 74 74 73 73 72 69 65 60 57 55 52 48
259 259 257 252 252 254 254 254 260 266 267 268 266 256 248 246 246 247 250 254 260 264 264 259 254 254 258 262 267 271 276 282 288 297 309 320 334 348 359 8 14 17 20 24 29 32 33 33 35 40 43 44 44 45 47 50 51 52 54 56 58 60 63 66 69 70 70 71 72 74 75 76 77 78 77 76 76 75 72 67 62 61 61 57 52
254 259 257 252 253 258 260 259 258 259 263 266 267 261 254 249 247 247 248 249 252 257 261 263 262 262 265 269 272 275 278 281 285 290 297 307 319 332 344 355 3 10 15 19 24 29 33 35 36 38 42 45 48 50 49 50 51 51 53 55 57 60 62 64 66 66 67 68 69 70 71 71 73 75 75 73 73 73 71 67 64 65 66 64 59
242 246 249 249 248 248 252 256 255 252 253 256 259 260 259 256 251 249 251 251 251 252 255 259 262 264 267 270 273 275 276 278 281 286 292 298 306 317 328 339 350 1 8 12 17 23 28 32 34 37 40 44 50 54 53 51 51 50 52 54 57 60 60 60 61 61 62 63 63 63 64 65 66 68 70 70 69 69 68 66 65 67 70 70 68
235 235 238 241 242 240 244 250 251 248 249 250 251 254 258 259 254 249 249 250 250 252 254 256 259 262 265 267 269 273 275 276 279 282 288 294 299 305 314 324 335 347 359 5 9 15 19 23 27 31 35 39 46 52 55 53 48 47 48 51 56 59 59 58 58 57 56 56 56 57 58 59 61 62 64 66 66 66 65 64 65 69 73 75 76
235 234 236 239 240 240 240 242 244 247 249 248 247 250 254 256 254 250 248 247 247 249 252 254 257 259 262 264 266 268 270 273 276 280 285 290 294 298 304 311 320 329 341 352 358 4 10 13 15 19 23 28 36 44 51 53 48 42 40 43 49 55 57 56 55 53 51 49 49 51 52 54 56 58 60 62 64 64 64 64 67 72 77 80 83
234 234 237 239 241 241 239 238 239 243 246 247 247 249 250 251 253 254 252 251 249 247 248 253 256 258 261 264 267 267 267 267 271 276 281 285 288 293 297 302 308 315 322 331 339 345 353 357 360 4 8 13 21 31 38 45 47 43 35 34 38 45 50 52 50 48 47 45 43 43 45 49 52 55 59 62 65 67 68 68 72 77 83 88 93
232 232 235 238 239 240 240 239 238 237 239 242 244 247 248 248 251 254 255 257 257 253 250 251 254 255 258 262 266 269 270 269 270 273 276 280 283 286 288 290 294 299 305 313 320 324 329 334 335 340 347 352 360 12 23 26 31 33 31 27 27 31 38 43 44 42 40 40 37 35 37 43 47 52 58 63 68 74 76 78 82 86 91 98 104
229 229 231 235 238 239 239 239 237 234 234 236 238 242 247 249 250 250 250 255 260 259 256 254 254 253 254 258 262 267 270 271 272 273 275 279 281 281 280 281 284 288 293 299 304 309 312 312 311 310 316 322 329 339 356 7 5 5 6 6 8 14 21 30 35 34 32 32 33 31 29 31 36 43 52 58 65 73 80 88 95 96 100 107 114
226 226 228 233 236 238 237 236 236 235 234 234 236 239 244 248 248 246 245 249 255 258 258 258 257 256 256 257 259 262 265 268 270 273 276 280 282 282 280 281 283 287 291 293 297 302 303 300 296 293 291 289 294 300 307 313 319 323 324 324 324 333 348 4 15 21 20 20 23 26 23 21 22 27 35 44 55 69 81 95 103 106 112 119 124
224 224 226 230 234 236 235 234 235 235 235 236 237 238 241 245 246 244 243 246 252 256 257 257 257 257 258 260 261 261 264 266 267 270 275 278 281 282 281 281 282 283 285 286 288 291 292 290 286 282 279 275 270 271 274 273 269 264 273 285 287 287 292 309 332 349 358 3 5 6 7 7 6 2 2 7 18 48 89 113 125 129 131 137 139
223 224 225 228 232 235 235 234 234 235 235 237 238 237 238 241 243 241 242 247 251 255 256 256 255 255 257 260 261 262 264 265 264 266 272 275 276 278 279 279 277 276 274 274 274 274 275 274 269 264 265 266 265 262 259 255 251 245 244 252 263 268 268 267 276 291 306 321 334 337 337 338 337 334 326 321 320 312 291 223 175 166 161 162 165
224 224 225 227 230 232 233 234 234 234 234 236 237 235 234 237 239 237 239 246 251 254 255 254 254 254 255 257 260 261 263 264 263 264 271 274 273 273 273 273 272 269 265 263 264 266 265 263 259 253 252 256 259 259 257 251 247 244 243 243 247 256 260 257 256 262 269 282 293 300 302 304 304 303 294 283 282 278 275 277 262 233 215 205 201
224 224 224 227 228 228 229 230 232 233 233 233 234 233 233 234 234 233 236 242 246 249 252 253 255 256 256 257 259 259 259 260 259 260 264 269 270 268 266 266 266 264 261 260 261 263 261 258 255 253 251 252 254 257 259 258 255 254 254 254 252 255 258 256 253 256 261 272 283 288 289 287 283 281 279 271 264 260 259 264 266 265 260 248 232
225 224 224 226 228 228 228 228 229 232 233 234 235 235 233 232 232 232 233 236 239 242 245 249 253 256 256 256 257 257 257 256 255 254 256 260 264 264 263 263 264 263 262 261 258 256 254 253 252 250 248 249 253 258 262 265 268 267 266 268 268 267 267 264 259 261 265 271 279 285 288 287 280 274 273 269 263 260 255 250 252 255 259 258 255
227 227 225 225 226 228 229 229 229 230 232 235 237 237 233 231 231 232 233 234 235 237 239 243 247 250 253 254 253 253 254 254 253 253 253 254 258 260 259 259 261 263 263 260 254 252 253 255 254 250 247 249 253 258 261 265 269 269 268 270 271 271 274 276 271 268 271 276 282 286 291 293 289 282 275 270 265 263 259 254 250 249 250 253 257
228 228 227 226 225 226 228 229 229 229 230 233 236 236 233 231 232 233 233 234 235 235 237 239 241 244 248 252 252 252 252 253 252 253 253 252 253 254 253 252 254 258 260 260 257 255 254 254 255 254 253 256 257 258 259 262 264 265 265 264 261 262 270 277 275 270 271 275 280 286 291 295 295 291 282 274 268 264 261 257 254 252 252 253 255
227 228 228 227 225 225 226 227 227 227 228 230 233 234 232 232 233 234 233 233 233 234 235 237 239 242 246 251 253 252 252 253 253 253 254 252 250 249 249 249 250 253 256 257 259 258 255 253 255 257 258 259 258 256 257 259 261 264 265 263 253 252 261 270 271 266 266 268 271 277 283 287 291 293 286 277 270 264 262 260 259 258 258 259 261
227 227 228 227 227 227 226 226 226 226 228 229 231 231 231 231 234 236 236 234 233 234 235 237 239 242 246 251 254 253 251 252 253 252 252 251 249 247 247 247 248 250 253 255 258 259 257 256 258 259 259 258 256 255 253 255 260 264 265 263 253 246 253 263 265 261 259 261 265 270 272 277 283 285 282 276 270 264 261 260 262 265 266 268 270
227 227 227 227 228 228 228 228 227 227 228 230 230 229 228 229 231 234 236 236 235 235 235 236 238 241 245 250 253 253 251 251 251 249 248 249 248 246 245 246 248 250 252 254 256 258 259 259 259 259 258 256 255 254 255 256 261 264 266 263 256 246 247 254 258 255 254 255 258 261 262 266 270 270 269 268 266 263 263 264 265 268 270 272 271
228 228 228 228 228 229 230 230 229 229 230 231 230 229 228 227 228 230 233 234 235 236 236 236 236 238 242 245 249 252 252 252 252 250 248 247 247 246 244 244 246 248 249 251 254 256 257 259 259 258 259 258 256 256 259 262 264 266 267 265 259 250 245 248 251 253 253 254 254 253 253 255 257 259 258 258 258 259 263 269 272 274 275 276 273
230 229 229 229 229 229 231 232 232 232 232 233 233 231 229 228 227 229 231 233 234 235 236 236 236 238 239 240 243 248 250 250 251 251 249 247 247 247 245 243 245 246 247 249 252 254 255 256 257 259 261 261 259 260 262 265 265 266 267 267 263 256 247 243 245 249 253 254 253 251 250 248 250 253 254 254 255 256 259 265 268 271 274 275 272
231 231 230 230 230 230 231 233 234 234 235 235 235 234 233 230 229 228 230 232 234 236 236 237 236 237 238 238 240 245 247 247 247 248 247 246 246 246 247 246 246 247 247 249 251 253 252 252 253 255 259 261 260 261 262 263 262 262 264 265 263 259 251 243 240 245 252 255 254 252 249 245 245 248 251 252 256 257 258 261 264 266 268 271 271
234 232 231 231 231 232 232 233 234 236 236 237 236 236 235 234 232 230 230 232 234 236 238 239 238 238 239 240 241 244 246 246 245 244 244 245 245 245 247 247 248 247 247 248 249 250 251 251 251 252 254 257 258 259 260 261 260 259 260 261 262 260 255 246 241 243 249 254 256 253 249 244 244 247 248 250 254 256 257 260 264 265 264 267 270
237 235 233 232 232 232 233 234 235 236 237 238 238 237 237 236 236 234 233 233 235 237 239 241 242 242 242 243 244 246 247 246 245 243 243 244 245 246 246 247 247 247 247 247 248 248 249 250 250 250 251 252 254 256 258 259 258 257 256 257 259 259 257 254 251 250 250 252 254 254 249 245 246 247 247 248 252 255 257 260 264 267 266 267 270
238 237 236 234 233 233 234 235 236 237 238 239 239 239 238 237 237 237 237 236 237 238 240 241 243 244 244 245 245 246 247 246 245 244 244 244 245 247 248 248 247 247 247 248 249 249 249 250 251 251 251 251 251 253 256 256 256 255 255 255 257 257 257 259 261 260 255 250 249 250 248 245 245 246 247 249 252 254 256 259 263 266 268 270 272
238 239 238 237 236 235 234 235 236 237 238 239 240 240 239 238 237 238 238 239 239 240 241 242 243 244 245 247 247 247 247 247 246 246 246 246 246 247 248 249 248 247 247 248 249 249 249 250 250 250 250 251 250 252 254 255 254 255 256 256 255 253 251 252 253 253 252 249 247 247 246 245 245 246 248 250 253 254 255 258 261 265 268 270 270
238 239 239 239 238 238 236 236 236 237 238 239 240 240 241 240 239 238 238 240 241 241 242 243 244 245 246 247 248 248 248 247 246 246 246 247 247 247 247 247 248 248 249 249 249 249 249 250 250 249 249 249 249 250 252 253 253 255 256 256 253 249 247 247 248 248 249 249 249 248 247 246 246 248 250 252 254 256 257 259 261 265 267 269 270
238 238 239 239 239 239 239 238 238 237 237 238 239 240 241 241 241 239 239 239 241 242 243 244 244 245 246 246 247 248 249 248 247 247 247 247 247 247 247 246 246 247 249 249 249 249 249 249 250 249 248 247 247 248 249 251 252 254 256 255 252 248 248 250 249 248 249 249 250 250 250 249 248 249 252 254 256 258 259 260 261 263 266 267 268
237 238 239 239 240 240 240 240 240 239 239 238 239 239 240 240 241 241 240 240 240 242 243 244 245 245 246 246 246 247 248 249 248 247 247 247 247 247 248 247 247 247 247 248 249 249 249 249 249 249 248 247 246 245 246 248 251 252 254 255 252 250 251 252 250 248 248 249 249 250 250 251 250 251 252 254 256 260 262 262 261 262 264 265 267
237 238 238 239 239 240 240 241 241 241 240 240 240 240 240 240 241 241 241 241 241 241 242 244 245 245 246 246 246 246 246 247 248 248 248 248 248 248 248 248 248 248 247 246 246 248 249 249 249 248 248 248 247 245 244 245 247 250 252 253 252 251 252 253 252 249 247 247 248 248 248 249 251 252 253 254 257 260 262 262 262 262 263 265 267
238 238 238 239 239 240 240 240 241 241 241 241 241 241 241 241 241 241 241 242 242 242 242 243 244 245 245 246 246 246 245 246 247 248 249 249 249 249 249 249 249 249 248 246 244 245 247 248 249 248 247 247 247 246 245 245 245 247 250 251 250 249 250 252 253 252 249 247 246 247 247 248 250 252 255 257 259 261 262 262 262 263 264 265 267
239 239 239 239 239 240 240 240 241 241 241 241 242 242 242 242 242 242 242 242 242 242 242 243 243 244 245 245 246 246 245 245 245 246 247 248 249 249 250 249 249 249 248 247 245 244 245 246 247 248 248 247 247 246 246 246 246 247 248 250 250 248 248 249 252 252 251 249 247 246 246 247 249 251 255 257 259 261 262 262 263 264 265 267 268
240 240 240 240 240 240 240 241 241 241 241 242 242 242 243 243 243 243 243 243 243 243 243 243 243 244 244 245 245 246 246 245 245 245 245 246 247 248 249 249 249 248 248 247 246 245 245 245 246 247 248 248 247 247 247 247 247 248 249 250 251 250 248 248 250 252 252 251 249 247 246 246 247 249 252 256 258 259 261 262 264 266 268 269 269
241 241 241 241 241 241 241 241 241 241 242 242 242 242 243 243 243 244 244 244 244 243 243 243 244 244 244 244 245 245 245 246 245 245 244 244 245 247 248 249 249 249 248 248 247 246 245 245 245 246 246 247 247 247 247 247 247 248 249 251 252 252 250 248 249 250 252 252 251 249 247 246 247 247 249 252 255 257 258 260 262 264 266 267 268
241 241 241 241 241 241 241 242 242 242 242 242 243 243 243 243 244 244 244 244 244 244 244 244 244 244 244 244 244 245 245 245 246 245 245 244 244 244 246 247 248 249 249 248 248 247 247 246 246 245 245 246 246 247 247 247 247 248 248 250 252 253 252 250 249 250 250 251 251 251 250 249 248 248 249 251 253 254 256 258 260 262 263 265 266
243 242 242 242 242 242 242 242 242 243 243 243 243 244 244 244 244 244 244 245 245 245 245 245 245 245 245 245 245 245 245 245 245 245 245 245 244 244 244 245 247 248 248 248 248 248 247 247 246 246 245 245 245 246 246 247 248 248 249 250 251 252 252 251 251 250 250 250 251 251 251 251 251 250 251 252 252 253 255 256 258 260 262 263 264
243 243 243 243 243 243 243 243 243 243 243 244 244 244 244 244 245 245 245 245 245 245 245 245 245 245 245 245 245 245 245 245 245 245 245 245 245 245 245 245 245 246 247 248 248 248 247 247 247 246 246 246 245 245 245 246 247 248 248 249 251 252 252 252 252 252 251 251 251 250 250 250 251 251 252 253 253 254 254 255 256 258 259 261 262
243 244 244 244 244 244 244 244 243 244 244 244 244 244 245 245 245 245 245 245 245 245 246 245 245 245 246 246 246 246 245 245 245 244 245 245 245 245 245 245 245 245 245 246 247 248 248 248 247 247 246 246 246 246 246 246 247 247 248 249 249 251 252 253 253 253 253 253 253 252 251 250 249 250 251 252 253 254 255 255 255 256 257 259 260
243 244 244 244 245 245 245 245 244 244 244 244 244 245 245 245 245 245 245 246 246 246 246 246 246 246 246 246 246 246 245 245 245 245 245 245 245 245 245 246 246 246 245 245 246 246 247 248 248 248 247 246 246 247 247 247 247 248 248 249 249 250 251 252 253 254 254 254 254 254 254 253 251 250 250 250 251 253 255 256 256 257 257 258 259
244 244 244 244 245 245 245 245 245 245 245 245 245 245 245 245 245 245 246 246 246 246 246 246 246 246 246 246 246 246 245 245 245 245 245 245 245 245 245 245 246 246 246 246 246 245 246 246 247 248 248 248 247 246 247 247 248 249 249 249 250 250 250 251 252 253 254 254 255 255 255 255 254 254 253 252 252 253 254 255 256 256 257 258 259
244 244 244 245 245 245 245 245 245 245 245 245 245 245 245 245 245 245 246 246 246 246 246 246 246 246 246 246 246 246 246 245 245 245 245 245 245 245 245 245 245 246 246 247 247 246 246 245 246 247 248 249 248 248 247 247 248 249 249 250 250 251 251 251 252 252 253 254 255 255 255 255 255 255 256 255 255 255 255 255 255 256 257 258 259
244 244 245 245 245 245 246 246 246 246 246 246 245 245 245 245 245 245 245 245 246 246 246 246 246 246 246 246 246 246 246 246 245 245 245 245 245 245 245 245 245 245 246 246 246 247 246 246 245 245 246 247 248 249 249 248 248 248 249 249 250 251 252 252 252 252 252 253 254 255 255 255 255 255 256 256 257 258 258 258 257 258 258 259 260
244 244 244 245 245 245 246 246 246 246 246 246 246 246 246 246 245 245 245 245 245 246 246 246 246 246 246 246 246 246 246 246 246 245 245 245 245 245 245 245 245 245 245 245 246 246 246 246 246 245 245 246 247 248 249 249 249 248 248 249 250 251 252 252 253 253 253 253 253 254 255 256 256 256 256 256 256 257 258 259 260 260 260 260 260
245 244 244 245 245 245 246 246 246 247 247 247 247 247 246 246 246 246 246 246 246 246 246 246 246 246 246 246 246 246 246 246 246 246 245 245 245 245 245 244 244 244 245 245 245 246 246 246 246 246 245 245 246 246 247 248 249 249 249 249 249 250 251 252 253 253 253 253 253 253 254 254 256 257 257 257 257 257 257 258 259 260 261 261 262
246 245 245 245 245 245 245 246 246 247 247 247 248 248 248 247 247 247 247 247 247 247 247 247 247 246 246 246 246 246 246 246 246 246 245 245 245 245 244 244 244 244 244 244 245 245 245 245 245 245 245 245 245 246 246 247 248 249 249 249 249 249 250 250 252 253 254 254 254 254 254 254 255 255 257 257 258 258 258 258 258 259 260 261 261
247 246 246 246 246 246 246 246 246 247 247 248 248 248 249 249 249 249 248 248 248 248 247 247 247 247 247 247 247 246 246 246 246 246 246 245 245 245 244 244 244 244 244 244 244 244 244 244 244 244 244 244 244 245 245 246 247 248 248 249 249 250 250 250 250 251 252 253 254 255 255 255 255 255 256 256 257 258 259 259 260 260 260 261 261
Height
11017 11017 11018 11018 11018 11019 11020 11021 11022 11023 11023 11024 11024 11025 11026 11027 11027 11027 11027 11027 11027 11027 11027 11027 11027 11027 11027 11027 11027 11026 11026 11025 11025 11024 11024 11023 11023 11022 11021 11020 11019 11018 11016 11016 11015 11014 11013 11012 11011 11010 11009 11008 11007 11006 11005 11004 11003 11002 11001 11000 10999 10998 10997 10996 10995 10994 10994 10993 10992 10992 10991 10991 10990 10990 10989 10988 10988 10987 10987 10986 10985 10984 10982 10981 10980
11015 11016 11017 11017 11017 11017 11018 11019 11020 11022 11023 11023 11024 11024 11025 11026 11026 11026 11026 11026 11026 11026 11026 11027 11027 11027 11027 11027 11027 11027 11026 11026 11025 11024 11024 11024 11023 11023 11022 11021 11020 11019 11018 11017 11016 11016 11015 11014 11013 11012 11010 11009 11008 11007 11006 11005 11004 11003 11002 11000 10999 10998 10997 10996 10995 10994 10993 10992 10992 10991 10990 10990 10989 10989 10988 10988 10987 10987 10986 10985 10984 10983 10982 10980 10979
11014 11015 11016 11016 11016 11015 11016 11016 11017 11019 11021 11021 11022 11023 11023 11024 11024 11025 11024 11025 11025 11025 11025 11025 11026 11026 11027 11027 11027 11027 11026 11026 11025 11024 11024 11024 11024 11024 11023 11023 11022 11021 11020 11018 11018 11017 11016 11015 11014 11013 11012 11011 11010 11009 11008 11007 11006 11004 11003 11002 11000 10999 10998 10996 10995 10994 10993 10992 10991 10991 10990 10989 10989 10988 10988 10987 10987 10986 10986 10985 10984 10983 10982 10981 10979
11013 11014 11014 11015 11014 11014 11014 11014 11014 11015 11016 11018 11019 11020 11021 11021 11022 11023 11023 11023 11023 11023 11023 11023 11024 11024 11025 11026 11026 11026 11026 11025 11025 11024 11024 11024 11024 11024 11024 11023 11022 11021 11020 11020 11019 11018 11017 11016 11015 11014 11013 11012 11011 11010 11009 11008 11007 11006 11004 11003 11002 11000 10999 10997 10996 10994 10993 10992 10991 10991 10990 10989 10989 10988 10988 10987 10986 10986 10985 10984 10984 10983 10982 10981 10980
11012 11012 11012 11013 11013 11013 11013 11013 11013 11014 11014 11015 11016 11018 11019 11020 11021 11021 11022 11023 11023 11022 11022 11022 11022 11022 11023 11024 11024 11025 11025 11025 11024 11024 11024 11024 11024 11024 11023 11023 11022 11022 11021 11020 11020 11019 11018 11017 11016 11015 11014 11013 11012 11012 11011 11010 11009 11008 11006 11005 11003 11002 11000 10999 10997 10996 10995 10993 10992 10991 10990 10989 10989 10988 10988 10987 10986 10986 10985 10984 10984 10983 10982 10981 10980
11010 11010 11011 11011 11012 11013 11013 11013 11013 11013 11014 11015 11015 11016 11017 11018 11019 11020 11021 11022 11022 11022 11022 11022 11021 11020 11021 11022 11023 11023 11024 11024 11024 11024 11024 11023 11023 11023 11023 11023 11022 11022 11021 11021 11020 11020 11019 11018 11017 11016 11016 11015 11014 11013 11012 11011 11010 11009 11008 11007 11005 11004 11002 11001 11000 10998 10997 10995 10994 10992 10991 10990 10989 10989 10988 10988 10987 10986 10985 10985 10984 10984 10983 10982 10982
11011 11011 11010 11009 11010 11011 11012 11011 11012 11012 11012 11013 11014 11015 11016 11017 11018 11018 11018 11019 11020 11021 11021 11021 11020 11020 11020 11020 11021 11023 11023 11024 11024 11024 11023 11023 11023 11023 11023 11022 11022 11021 11021 11021 11020 11020 11020 11019 11018 11018 11017 11016 11015 11014 11014 11013 11012 11011 11010 11009 11008 11006 11005 11003 11002 11000 10999 10997 10996 10994 10993 10992 10991 10990 10989 10989 10988 10987 10987 10986 10986 10986 10985 10985 10984
11010 11010 11005 11004 11006 11008 11008 11009 11010 11010 11010 11011 11012 11013 11014 11015 11016 11016 11016 11016 11017 11018 11019 11019 11019 11019 11019 11019 11020 11021 11022 11023 11023 11023 11023 11022 11022 11023 11023 11022 11022 11021 11021 11021 11021 11020 11020 11019 11019 11019 11018 11017 11017 11016 11015 11014 11014 11013 11012 11011 11010 11009 11008 11006 11005 11003 11002 11000 10998 10997 10995 10994 10993 10992 10991 10990 10990 10989 10988 10988 10988 10988 10987 10987 10986
11004 11004 11001 11000 11002 11004 11005 11006 11007 11008 11008 11009 11009 11011 11012 11013 11013 11014 11014 11014 11015 11016 11017 11017 11017 11018 11018 11018 11019 11020 11021 11021 11021 11022 11022 11022 11022 11022 11022 11022 11022 11022 11021 11021 11021 11021 11020 11020 11019 11019 11018 11018 11018 11017 11017 11016 11015 11015 11014 11013 11013 11012 11011 11009 11008 11007 11005 11003 11001 11000 10998 10997 10995 10994 10993 10992 10992 10991 10990 10990 10990 10989 10989 10989 10989
10998 10999 10998 10999 10999 11000 11002 11004 11005 11005 11005 11006 11007 11009 11010 11011 11011 11011 11011 11012 11013 11014 11014 11015 11015 11016 11017 11017 11018 11018 11019 11020 11020 11020 11020 11020 11021 11021 11021 11021 11021 11021 11021 11021 11021 11021 11021 11020 11019 11019 11019 11018 11018 11018 11017 11017 11016 11016 11015 11015 11014 11014 11013 11012 11011 11010 11008 11007 11005 11003 11002 11000 10998 10997 10996 10995 10994 10993 10993 10992 10992 10991 10991 10991 10991
10992 10994 10995 10996 10996 10997 10998 11000 11002 11003 11003 11004 11005 11006 11008 11009 11009 11009 11009 11009 11010 11010 11011 11012 11013 11014 11014 11015 11016 11017 11017 11018 11018 11018 11019 11019 11019 11019 11020 11020 11020 11020 11021 11021 11021 11021 11021 11021 11020 11019 11019 11018 11018 11018 11018 11017 11017 11017 11016 11016 11016 11016 11015 11015 11014 11013 11012 11010 11009 11007 11005 11003 11002 11000 10999 10998 10997 10996 10995 10994 10994 10993 10993 10993 10993
10987 10989 10990 10992 10993 10993 10994 10995 10997 10999 11000 11001 11002 11003 11005 11006 11007 11007 11007 11007 11007 11008 11009 11009 11010 11011 11012 11013 11014 11015 11015 11016 11016 11017 11017 11017 11017 11018 11018 11018 11019 11019 11019 11020 11020 11021 11021 11021 11020 11020 11019 11018 11018 11018 11017 11017 11017 11017 11017 11016 11016 11016 11016 11016 11016 11015 11014 11013 11012 11010 11009 11007 11005 11003 11002 11000 10999 10998 10997 10997 10996 10996 10995 10995 10995
10982 10983 10986 10987 10988 10989 10990 10991 10992 10994 10996 10997 10999 11000 11001 11002 11003 11004 11004 11005 11005 11006 11007 11007 11007 11008 11009 11010 11011 11012 11014 11014 11015 11015 11015 11015 11016 11016 11016 11016 11017 11018 11018 11019 11019 11019 11020 11020 11020 11019 11019 11018 11017 11017 11017 11016 11016 11016 11016 11016 11016 11016 11016 11017 11017 11016 11016 11015 11014 11013 11012 11010 11008 11006 11005 11003 11002 11001 11000 10999 10998 10998 10997 10997 10997
10975 10977 10980 10982 10982 10984 10986 10987 10988 10989 10991 10993 10994 10996 10997 10998 10999 10999 11000 11001 11002 11003 11004 11004 11005 11005 11005 11006 11007 11009 11011 11013 11013 11013 11013 11013 11014 11014 11015 11015 11016 11017 11017 11018 11018 11019 11019 11019 11019 11019 11018 11018 11017 11016 11015 11015 11015 11015 11015 11015 11015 11015 11016 11016 11017 11017 11017 11016 11016 11015 11014 11013 11011 11009 11007 11006 11004 11003 11002 11001 11000 11000 10999 10999 10999
10969 10970 10973 10975 10977 10979 10980 10982 10983 10984 10986 10988 10990 10992 10993 10994 10995 10995 10996 10997 10998 10999 11000 11000 11001 11002 11002 11003 11004 11006 11008 11010 11011 11011 11011 11011 11011 11012 11013 11013 11014 11015 11015 11016 11016 11017 11017 11017 11017 11017 11017 11017 11016 11015 11014 11014 11013 11013 11013 11013 11013 11013 11014 11015 11016 11016 11016 11016 11016 11016 11015 11014 11013 11012 11010 11008 11006 11005 11004 11003 11002 11001 11001 11000 11000
10963 10965 10967 10969 10971 10973 10975 10976 10978 10979 10980 10982 10985 10987 10988 10989 10990 10991 10992 10992 10993 10994 10995 10996 10997 10998 10999 10999 11000 11002 11005 11007 11008 11009 11009 11009 11009 11009 11009 11010 11011 11011 11012 11013 11013 11013 11013 11014 11014 11014 11014 11014 11015 11014 11014 11013 11012 11011 11011 11011 11011 11011 11011 11012 11013 11014 11015 11016 11016 11016 11015 11015 11014 11013 11011 11010 11008 11007 11005 11004 11003 11002 11001 11001 11001
10956 10959 10961 10963 10965 10967 10969 10971 10972 10973 10974 10977 10979 10981 10983 10984 10986 10987 10988 10988 10988 10989 10990 10991 10992 10993 10995 10996 10997 10999 11002 11004 11005 11006 11007 11007 11007 11007 11006 11006 11007 11007 11008 11009 11009 11010 11010 11010 11011 11011 11011 11011 11012 11012 11012 11012 11011 11010 11010 11009 11009 11008 11009 11010 11011 11012 11013 11014 11014 11014 11014 11014 11013 11012 11011 11010 11009 11007 11006 11005 11004 11003 11002 11001 11001
10948 10952 10954 10956 10958 10960 10962 10964 10966 10967 10969 10971 10974 10976 10978 10980 10981 10982 10983 10984 10984 10985 10986 10987 10988 10989 10990 10991 10993 10995 10998 11001 11002 11003 11003 11004 11004 11003 11003 11003 11003 11003 11004 11005 11006 11006 11006 11007 11008 11009 11009 11010 11010 11009 11010 11010 11011 11010 11010 11009 11008 11007 11007 11007 11008 11009 11010 11011 11012 11012 11012 11012 11012 11011 11010 11009 11008 11007 11006 11005 11004 11003 11002 11001 11000
10940 10943 10946 10949 10951 10953 10955 10958 10960 10962 10963 10965 10968 10971 10973 10975 10976 10977 10978 10979 10979 10980 10982 10983 10984 10985 10986 10987 10989 10991 10994 10997 10998 10999 10999 10999 11000 11000 11001 11001 11001 11001 11001 11002 11002 11002 11003 11003 11004 11005 11006 11007 11008 11008 11008 11009 11010 11011 11010 11009 11008 11007 11007 11006 11006 11007 11007 11008 11009 11010 11010 11010 11010 11009 11009 11008 11007 11006 11005 11004 11003 11001 11001 11000 10999
10931 10934 10937 10941 10944 10947 10949 10952 10954 10956 10957 10959 10961 10964 10967 10969 10971 10972 10973 10973 10974 10975 10976 10978 10980 10981 10982 10983 10985 10986 10988 10991 10993 10993 10994 10995 10996 10998 10999 10999 10998 10998 10998 10998 10998 10999 11000 11000 11001 11002 11003 11004 11005 11005 11006 11006 11007 11008 11009 11009 11009 11007 11006 11006 11006 11006 11005 11006 11007 11007 11008 11008 11008 11007 11006 11006 11005 11004 11003 11002 11001 11000 10999 10998 10997
10923 10926 10928 10932 10936 10940 10942 10945 10947 10949 10951 10952 10954 10957 10960 10963 10964 10966 10967 10967 10968 10969 10970 10972 10973 10975 10977 10979 10980 10981 10982 10984 10987 10988 10990 10991 10992 10994 10994 10995 10996 10996 10996 10995 10995 10996 10997 10997 10998 10999 11000 11001 11001 11002 11002 11002 11003 11003 11005 11006 11007 11006 11005 11005 11005 11005 11004 11004 11004 11004 11005 11005 11005 11005 11004 11003 11002 11002 11000 11000 10999 10998 10997 10996 10996
10916 10918 10920 10923 10927 10931 10934 10937 10939 10941 10943 10945 10948 10950 10953 10956 10957 10958 10959 10960 10961 10962 10963 10965 10967 10969 10972 10973 10975 10976 10977 10980 10982 10984 10985 10986 10988 10989 10990 10991 10992 10992 10992 10992 10992 10992 10993 10993 10994 10995 10996 10997 10998 10999 10999 11000 11000 11000 11001 11003 11004 11004 11003 11003 11003 11003 11003 11002 11002 11002 11002 11002 11002 11002 11002 11001 11000 10999 10998 10997 10996 10996 10995 10995 10995
10909 10910 10912 10914 10917 10921 10924 10928 10931 10933 10935 10938 10941 10944 10946 10949 10950 10951 10952 10952 10954 10955 10957 10959 10962 10964 10966 10967 10969 10970 10973 10975 10977 10979 10981 10981 10983 10985 10986 10986 10987 10987 10987 10988 10989 10989 10989 10990 10991 10992 10993 10994 10995 10995 10996 10997 10997 10998 10998 11000 11001 11001 11001 11001 11001 11001 11001 11001 11000 11000 11000 11000 10999 10999 10999 10998 10997 10997 10996 10995 10994 10994 10993 10993 10993
10900 10902 10903 10905 10908 10910 10914 10918 10922 10924 10927 10930 10934 10937 10939 10941 10942 10943 10944 10945 10947 10949 10950 10953 10956 10959 10961 10962 10963 10965 10967 10970 10971 10973 10975 10976 10977 10979 10981 10982 10982 10983 10984 10984 10985 10986 10986 10986 10987 10988 10989 10990 10991 10992 10993 10994 10994 10995 10996 10997 10998 10998 10998 10998 10998 10999 10999 10998 10999 10999 10998 10998 10997 10996 10996 10995 10995 10994 10993 10993 10993 10992 10992 10991 10991
10890 10892 10894 10896 10899 10901 10904 10908 10911 10914 10918 10922 10926 10929 10930 10931 10933 10934 10936 10937 10939 10942 10944 10946 10950 10953 10956 10957 10958 10959 10961 10964 10966 10967 10969 10970 10971 10973 10975 10976 10978 10979 10979 10980 10980 10981 10982 10982 10982 10983 10985 10986 10988 10989 10990 10990 10991 10992 10993 10994 10994 10995 10996 10996 10996 10996 10996 10996 10996 10997 10996 10996 10995 10994 10993 10992 10992 10991 10991 10991 10990 10990 10989 10989 10988
10879 10881 10884 10886 10889 10891 10894 10897 10901 10905 10908 10912 10916 10919 10921 10922 10924 10926 10928 10930 10932 10934 10937 10940 10943 10946 10949 10951 10952 10953 10955 10958 10960 10961 10962 10964 10966 10967 10969 10971 10973 10973 10974 10975 10975 10976 10977 10977 10978 10979 10980 10982 10984 10985 10986 10987 10988 10989 10989 10990 10991 10992 10992 10993 10993 10993 10993 10993 10993 10994 10994 10993 10992 10991 10990 10990 10989 10989 10989 10989 10988 10987 10986 10985 10984
10867 10870 10873 10876 10879 10882 10885 10887 10891 10894 10897 10901 10906 10910 10912 10913 10915 10918 10920 10922 10924 10927 10930 10933 10936 10938 10941 10943 10945 10947 10949 10951 10954 10955 10956 10957 10959 10961 10964 10966 10967 10968 10968 10969 10970 10970 10971 10972 10973 10974 10976 10978 10979 10981 10982 10983 10984 10984 10985 10986 10987 10987 10988 10989 10989 10989 10989 10989 10990 10990 10990 10990 10989 10988 10987 10987 10986 10987 10987 10986 10984 10984 10983 10982 10981
10855 10859 10862 10865 10868 10871 10874 10877 10880 10883 10886 10890 10895 10899 10902 10904 10906 10908 10911 10913 10916 10919 10922 10924 10927 10929 10932 10935 10938 10940 10942 10944 10947 10948 10949 10950 10953 10955 10957 10959 10961 10962 10963 10963 10964 10964 10965 10966 10968 10970 10971 10973 10974 10975 10977 10978 10979 10980 10980 10981 10982 10983 10984 10985 10985 10985 10985 10985 10986 10986 10986 10986 10986 10985 10985 10984 10984 10984 10984 10983 10981 10980 10980 10979 10977
10840 10845 10849 10852 10856 10859 10862 10865 10868 10872 10875 10879 10884 10888 10892 10894 10896 10899 10901 10904 10907 10910 10913 10916 10918 10921 10924 10927 10930 10932 10934 10936 10938 10940 10941 10943 10946 10948 10951 10952 10954 10956 10957 10957 10957 10958 10960 10961 10963 10965 10966 10968 10969 10970 10971 10973 10974 10974 10975 10975 10977 10978 10980 10982 10982 10982 10981 10981 10981 10981 10981 10982 10982 10982 10981 10980 10980 10981 10981 10980 10978 10977 10976 10976 10975
10826 10831 10835 10839 10844 10848 10851 10854 10857 10861 10865 10869 10873 10877 10881 10884 10886 10889 10891 10895 10898 10901 10903 10906 10908 10912 10914 10917 10920 10923 10925 10927 10929 10931 10933 10935 10938 10941 10943 10945 10947 10949 10950 10951 10951 10952 10954 10956 10957 10959 10960 10962 10963 10964 10965 10967 10968 10969 10969 10971 10972 10974 10978 10981 10979 10975 10974 10975 10975 10975 10976 10977 10977 10976 10976 10976 10977 10977 10977 10976 10974 10973 10973 10972 10971
10812 10816 10821 10825 10830 10834 10839 10842 10846 10849 10853 10857 10861 10865 10868 10872 10875 10878 10880 10883 10886 10890 10892 10895 10897 10901 10904 10907 10910 10913 10914 10917 10920 10923 10924 10926 10930 10933 10935 10937 10940 10942 10944 10944 10944 10945 10948 10950 10951 10953 10954 10955 10956 10958 10959 10960 10961 10962 10964 10965 10967 10970 10974 10973 10968 10964 10965 10967 10968 10968 10970 10972 10972 10971 10972 10972 10972 10972 10972 10972 10971 10970 10970 10969 10968
10797 10802 10806 10811 10816 10820 10825 10829 10833 10837 10841 10845 10848 10852 10855 10859 10863 10866 10868 10870 10873 10877 10880 10882 10885 10890 10893 10895 10898 10901 10903 10906 10910 10913 10915 10917 10921 10925 10927 10928 10931 10935 10936 10936 10937 10939 10941 10943 10944 10946 10948 10949 10950 10951 10953 10954 10955 10956 10957 10959 10962 10965 10965 10962 10958 10958 10959 10961 10962 10964 10965 10967 10967 10967 10967 10967 10967 10967 10967 10967 10967 10966 10966 10965 10964
10783 10787 10792 10797 10801 10806 10810 10815 10819 10823 10827 10831 10835 10839 10842 10845 10848 10852 10855 10858 10861 10864 10866 10870 10873 10878 10882 10884 10887 10889 10892 10895 10899 10902 10905 10907 10910 10914 10916 10919 10923 10927 10928 10928 10929 10931 10933 10935 10936 10938 10940 10942 10943 10944 10946 10947 10948 10949 10950 10952 10955 10958 10957 10955 10954 10954 10955 10957 10958 10959 10960 10961 10962 10962 10962 10961 10961 10961 10961 10962 10962 10961 10961 10960 10959
10769 10773 10777 10782 10787 10792 10797 10801 10805 10808 10812 10817 10821 10824 10828 10831 10834 10837 10841 10845 10849 10852 10855 10857 10861 10865 10870 10873 10876 10878 10880 10883 10887 10890 10893 10895 10899 10903 10905 10908 10913 10917 10919 10920 10921 10922 10924 10927 10929 10930 10933 10934 10936 10937 10939 10939 10941 10943 10944 10946 10949 10951 10949 10948 10948 10948 10949 10952 10953 10953 10953 10955 10956 10956 10956 10956 10956 10956 10955 10955 10955 10955 10955 10954 10953
10755 10759 10763 10768 10773 10778 10782 10786 10789 10793 10797 10801 10806 10810 10813 10817 10820 10824 10828 10832 10837 10841 10843 10845 10848 10852 10857 10860 10863 10866 10869 10871 10874 10877 10881 10884 10887 10891 10895 10898 10902 10905 10908 10910 10912 10913 10915 10917 10919 10922 10924 10926 10927 10929 10931 10932 10933 10935 10937 10939 10942 10943 10942 10940 10940 10941 10944 10948 10948 10946 10947 10948 10948 10949 10950 10950 10949 10949 10948 10947 10948 10949 10948 10948 10947
10740 10744 10748 10753 10758 10762 10766 10770 10773 10777 10782 10786 10791 10795 10799 10803 10807 10810 10814 10818 10822 10827 10830 10832 10835 10839 10843 10847 10850 10853 10857 10860 10863 10866 10869 10873 10876 10880 10884 10888 10891 10893 10896 10898 10901 10904 10905 10907 10909 10911 10915 10917 10918 10920 10922 10923 10925 10927 10929 10931 10934 10935 10934 10933 10933 10934 10937 10940 10940 10940 10941 10942 10942 10944 10944 10943 10942 10942 10940 10940 10940 10941 10941 10941 10941
10724 10729 10733 10738 10742 10746 10749 10753 10757 10762 10767 10772 10776 10780 10784 10788 10792 10796 10800 10803 10808 10812 10816 10819 10822 10826 10830 10833 10836 10839 10843 10848 10852 10855 10858 10862 10866 10869 10872 10875 10878 10880 10883 10886 10889 10892 10895 10896 10899 10901 10904 10906 10908 10910 10912 10913 10916 10918 10921 10923 10925 10926 10926 10926 10926 10927 10929 10931 10932 10933 10935 10936 10936 10937 10938 10936 10935 10934 10934 10933 10933 10933 10933 10934 10934
10708 10713 10718 10722 10726 10729 10732 10736 10741 10746 10751 10756 10760 10764 10768 10772 10776 10780 10784 10788 10792 10797 10801 10804 10808 10813 10817 10819 10821 10825 10829 10835 10840 10844 10847 10851 10855 10857 10859 10861 10863 10866 10870 10874 10877 10881 10883 10886 10889 10892 10894 10896 10898 10900 10902 10903 10906 10909 10912 10914 10915 10917 10917 10918 10919 10920 10921 10922 10923 10925 10927 10928 10929 10930 10930 10929 10927 10927 10927 10927 10926 10926 10926 10926 10926
10691 10696 10700 10705 10709 10713 10717 10721 10725 10730 10734 10739 10744 10748 10752 10756 10760 10764 10768 10773 10777 10782 10786 10790 10794 10798 10802 10804 10807 10811 10816 10821 10826 10830 10835 10840 10843 10845 10846 10847 10849 10852 10857 10861 10865 10868 10872 10875 10879 10882 10884 10886 10887 10889 10890 10893 10895 10898 10902 10904 10905 10906 10908 10910 10911 10911 10913 10914 10914 10915 10917 10919 10920 10921 10922 10921 10919 10919 10919 10919 10918 10918 10918 10918 10918
10673 10678 10682 10686 10691 10696 10700 10704 10708 10713 10718 10723 10728 10732 10736 10740 10744 10748 10753 10757 10761 10766 10770 10775 10779 10782 10786 10789 10793 10797 10802 10807 10811 10816 10821 10826 10830 10832 10833 10833 10835 10839 10844 10849 10853 10856 10860 10864 10867 10870 10872 10873 10875 10876 10878 10881 10884 10887 10890 10893 10895 10896 10898 10900 10901 10901 10903 10905 10906 10906 10908 10909 10910 10911 10912 10911 10911 10911 10911 10910 10909 10910 10910 10910 10910
10655 10659 10663 10668 10672 10677 10682 10687 10692 10697 10702 10707 10711 10715 10719 10724 10728 10732 10736 10741 10745 10749 10754 10758 10763 10766 10770 10774 10778 10782 10787 10793 10798 10802 10806 10810 10814 10818 10819 10820 10822 10826 10831 10835 10839 10843 10846 10850 10854 10856 10858 10860 10862 10865 10867 10869 10872 10875 10878 10881 10884 10885 10887 10889 10890 10890 10892 10895 10897 10898 10899 10900 10900 10901 10901 10900 10901 10902 10901 10901 10900 10900 10900 10901 10901
10637 10641 10645 10649 10654 10659 10665 10671 10676 10680 10685 10689 10693 10697 10702 10706 10711 10715 10719 10723 10728 10732 10737 10742 10746 10750 10754 10758 10762 10766 10772 10778 10783 10788 10792 10795 10799 10802 10804 10806 10809 10812 10816 10820 10824 10828 10833 10837 10840 10842 10845 10847 10850 10853 10856 10858 10860 10863 10866 10869 10872 10873 10875 10878 10879 10879 10881 10883 10885 10887 10889 10890 10891 10891 10890 10890 10890 10891 10891 10891 10891 10890 10890 10891 10891
10620 10624 10627 10631 10636 10641 10647 10652 10658 10662 10666 10670 10675 10679 10684 10688 10693 10697 10701 10706 10710 10715 10720 10724 10729 10733 10737 10741 10745 10750 10756 10762 10768 10773 10778 10781 10784 10786 10789 10791 10794 10797 10800 10804 10809 10814 10819 10823 10826 10829 10832 10835 10837 10840 10843 10845 10847 10850 10853 10856 10859 10861 10863 10865 10867 10869 10870 10871 10873 10875 10878 10880 10881 10881 10881 10880 10880 10881 10881 10881 10881 10881 10881 10881 10882
10603 10606 10610 10614 10618 10622 10627 10633 10638 10643 10648 10652 10656 10661 10665 10670 10674 10678 10683 10687 10692 10696 10701 10706 10711 10715 10719 10724 10728 10733 10739 10745 10751 10757 10762 10765 10768 10771 10773 10776 10778 10780 10784 10789 10795 10800 10805 10808 10811 10814 10817 10821 10824 10827 10829 10831 10834 10837 10839 10842 10845 10848 10851 10853 10855 10857 10859 10860 10861 10862 10864 10867 10869 10870 10870 10870 10871 10872 10872 10871 10871 10872 10872 10872 10872
10585 10589 10593 10596 10600 10604 10608 10613 10618 10623 10628 10632 10637 10642 10646 10651 10655 10659 10664 10669 10673 10678 10683 10688 10692 10696 10700 10705 10710 10715 10722 10728 10734 10740 10745 10749 10753 10756 10758 10761 10763 10765 10769 10773 10779 10785 10790 10794 10797 10800 10802 10805 10809 10813 10816 10818 10820 10823 10825 10828 10831 10834 10837 10840 10843 10845 10847 10848 10849 10850 10852 10854 10855 10857 10859 10860 10860 10862 10862 10861 10861 10862 10862 10862 10862
10568 10572 10575 10578 10582 10585 10589 10593 10598 10603 10607 10612 10617 10622 10626 10631 10635 10640 10644 10649 10654 10659 10663 10668 10672 10676 10681 10686 10691 10697 10704 10710 10716 10722 10728 10732 10736 10739 10742 10746 10748 10751 10754 10757 10762 10767 10773 10778 10783 10786 10788 10789 10792 10797 10801 10804 10806 10808 10811 10813 10817 10820 10823 10826 10829 10832 10834 10835 10837 10838 10840 10841 10842 10844 10846 10847 10848 10850 10851 10851 10851 10851 10852 10852 10852
10551 10554 10558 10561 10564 10567 10570 10574 10578 10582 10587 10591 10596 10600 10605 10610 10615 10620 10625 10630 10634 10639 10643 10648 10652 10657 10662 10668 10674 10679 10685 10691 10697 10703 10708 10713 10718 10722 10726 10729 10732 10736 10739 10742 10745 10750 10755 10761 10767 10772 10775 10776 10778 10780 10784 10788 10792 10795 10797 10800 10804 10807 10809 10812 10815 10818 10820 10822 10825 10826 10827 10828 10830 10831 10833 10835 10836 10837 10838 10839 10839 10840 10841 10841 10840
10533 10537 10541 10544 10547 10550 10553 10556 10559 10563 10567 10571 10576 10580 10585 10590 10595 10600 10605 10609 10614 10618 10623 10628 10633 10638 10644 10650 10655 10661 10666 10671 10677 10683 10689 10694 10699 10703 10707 10711 10715 10719 10723 10726 10729 10733 10738 10744 10750 10756 10760 10763 10764 10765 10767 10771 10775 10779 10783 10787 10791 10794 10796 10798 10800 10803 10805 10809 10811 10813 10814 10815 10816 10817 10819 10822 10824 10825 10825 10826 10826 10827 10828 10829 10829
10517 10520 10524 10527 10530 10533 10536 10539 10542 10545 10549 10553 10557 10561 10566 10571 10576 10581 10585 10590 10594 10599 10604 10609 10613 10619 10624 10630 10636 10641 10647 10652 10657 10663 10669 10675 10679 10682 10686 10691 10696 10701 10705 10709 10712 10716 10721 10726 10732 10738 10743 10747 10748 10750 10752 10755 10759 10763 10768 10773 10777 10780 10782 10784 10786 10788 10791 10794 10797 10799 10801 10802 10803 10804 10805 10807 10810 10812 10813 10813 10814 10814 10814 10816 10816
10499 10503 10506 10509 10512 10516 10519 10522 10525 10529 10532 10536 10539 10543 10548 10552 10557 10562 10567 10572 10577 10581 10585 10590 10595 10600 10605 10611 10616 10621 10627 10632 10637 10642 10648 10653 10657 10660 10665 10671 10677 10682 10686 10690 10694 10698 10703 10708 10714 10719 10724 10727 10730 10734 10737 10740 10743 10747 10752 10757 10761 10764 10768 10770 10772 10774 10776 10779 10781 10784 10786 10788 10790 10791 10792 10793 10795 10797 10799 10800 10800 10801 10801 10802 10803
10482 10486 10489 10493 10496 10500 10503 10506 10509 10513 10516 10520 10523 10527 10531 10535 10539 10544 10549 10554 10559 10562 10566 10571 10576 10581 10586 10591 10596 10601 10607 10612 10616 10621 10626 10630 10635 10639 10645 10651 10656 10661 10665 10670 10674 10678 10683 10689 10694 10698 10702 10706 10711 10717 10722 10725 10728 10732 10736 10740 10744 10748 10752 10755 10758 10760 10762 10764 10767 10769 10770 10773 10774 10776 10778 10780 10781 10783 10784 10785 10786 10787 10787 10788 10789